Orbital Elements at Epoch 2459200.5 (2020-Dec-17.0) TDB
Reference: JPL 27 (heliocentric ecliptic J2000)
Element | Value | Uncertainty (1-sigma) | Units |
e | .07513186211688037 | 2.4893e-08 | |
a | 2.481897840831266 | 9.3611e-09 | au |
q | 2.295428234465748 | 5.9989e-08 | au |
i | 6.769712420307016 | 2.7006e-06 | deg |
node | 126.4508386373187 | 4.4437e-05 | deg |
peri | 14.10276848909495 | 6.1731e-05 | deg |
M | 130.3063121226416 | 4.366e-05 | deg |
tp | 2458683.563459968917 (2019-Jul-19.06345997) | 0.00017236 | TDB |
period | 1428.15149458024 3.91 | 8.0799e-06 2.212e-08 | d yr |
n | .2520740981374742 | 1.4261e-09 | deg/d |
Q | 2.668367447196784 | 1.0064e-08 | au |
|
| | Orbit Determination Parameters
Additional Information
|